�N����,����,�~����,�C��,���x,�C��,����,���ϕ���,�ő�u�ԕ���,�ő厞����,���˗�,�I�_���x,�n�����x,�ő啗���N��,DTYPE
"23/06/08","00:10",0.0,18.5,88.8,1005.7,307.5,1.0,1.4,340.4,0.00,16.7,20.1,"00:00:08",1
"23/06/08","00:20",0.0,18.3,89.5,1006.2,307.3,1.1,1.7,329.3,0.00,16.6,20.1,"00:14:16",1
"23/06/08","00:30",0.0,18.4,89.9,1005.7,288.3,1.1,1.8,311.4,0.00,16.8,20.2,"00:28:24",1
"23/06/08","00:40",0.0,18.4,90.1,1006.0,315.3,1.5,1.7,315.3,0.00,16.8,19.9,"00:33:12",1
"23/06/08","00:50",0.0,18.5,90.3,1006.0,328.1,1.3,1.6,330.7,0.00,16.9,20.2,"00:41:36",1
"23/06/08","01:00",0.0,18.3,90.6,1006.0,303.2,1.3,2.4,301.0,0.00,16.8,19.9,"00:53:20",1
"23/06/08","01:10",0.0,18.3,90.8,1006.0,315.6,1.3,1.8,310.7,0.00,16.8,19.9,"01:03:20",1
"23/06/08","01:20",0.0,18.4,91.0,1005.7,322.1,1.3,1.7,320.7,0.00,16.9,19.7,"01:17:36",1
"23/06/08","01:30",0.0,18.1,91.3,1006.2,315.2,1.0,1.4,313.0,0.00,16.7,19.7,"01:28:24",1
"23/06/08","01:40",0.0,17.8,91.4,1006.0,309.4,1.2,1.7,317.3,0.00,16.4,19.9,"01:30:40",1
"23/06/08","01:50",0.0,17.7,91.9,1006.0,325.8,1.1,1.6,329.7,0.00,16.4,19.7,"01:48:40",1
"23/06/08","02:00",0.0,17.9,91.9,1006.2,315.6,1.1,1.9,338.0,0.00,16.6,19.7,"01:51:12",1
"23/06/08","02:10",0.0,17.6,92.2,1005.7,316.7,1.3,1.9,320.3,0.00,16.4,19.8,"02:06:00",1
"23/06/08","02:20",0.0,17.5,92.4,1006.0,289.3,1.1,1.4,303.5,0.00,16.3,19.8,"02:10:08",1
"23/06/08","02:30",0.0,17.6,92.7,1005.5,307.1,1.2,1.8,310.1,0.00,16.4,19.7,"02:23:36",1
"23/06/08","02:40",0.0,17.6,92.8,1005.7,319.4,1.2,1.7,320.6,0.00,16.5,19.7,"02:31:04",1
"23/06/08","02:50",0.0,17.5,92.8,1006.2,314.9,1.2,1.8,322.7,0.00,16.4,19.4,"02:41:04",1
"23/06/08","03:00",0.0,17.3,93.1,1005.7,310.2,0.2,0.8,304.1,0.00,16.2,19.5,"02:51:12",1
"23/06/08","03:10",0.0,17.3,93.4,1006.2,328.2,1.3,1.7,331.8,0.00,16.3,19.5,"03:04:56",1
"23/06/08","03:20",0.0,17.3,93.4,1006.2,303.4,1.1,1.9,344.0,0.00,16.3,19.4,"03:10:48",1
"23/06/08","03:30",0.0,16.9,93.6,1006.2,307.6,1.0,1.3,322.0,0.00,15.9,19.5,"03:28:16",1
"23/06/08","03:40",0.0,16.9,93.9,1006.2,310.8,1.5,1.8,307.8,0.00,16.0,19.5,"03:38:32",1
"23/06/08","03:50",0.0,16.9,94.0,1006.2,310.0,1.2,1.7,313.6,0.00,16.0,19.3,"03:47:44",1
"23/06/08","04:00",0.0,16.7,94.1,1006.0,319.8,1.1,1.4,312.9,0.00,15.8,19.3,"03:50:08",1
"23/06/08","04:10",0.0,16.8,94.2,1006.2,311.6,1.2,1.6,324.0,0.00,15.9,19.2,"04:06:32",1
"23/06/08","04:20",0.0,16.6,94.3,1006.4,292.7,1.0,1.6,311.3,0.00,15.7,19.1,"04:16:48",1
"23/06/08","04:30",0.0,16.5,94.5,1006.4,315.2,1.1,1.6,316.2,0.00,15.7,19.4,"04:24:32",1
"23/06/08","04:40",0.0,16.7,94.7,1006.4,326.6,1.5,1.9,332.1,0.00,15.9,19.3,"04:38:32",1
"23/06/08","04:50",0.0,16.5,94.8,1006.9,320.9,1.1,1.4,326.6,0.00,15.7,19.4,"04:40:56",1
"23/06/08","05:00",0.0,16.3,94.8,1006.7,290.4,0.8,1.2,315.4,0.00,15.5,19.1,"04:52:32",1
"23/06/08","05:10",0.0,16.4,95.0,1006.7,326.4,0.8,1.3,321.6,0.00,15.6,19.3,"05:09:52",1
"23/06/08","05:20",0.0,16.3,95.1,1006.7,317.9,1.2,1.6,324.0,0.00,15.6,19.1,"05:10:24",1
"23/06/08","05:30",0.0,16.3,95.1,1006.9,311.6,1.2,1.6,333.8,0.00,15.6,19.2,"05:21:44",1
"23/06/08","05:40",0.0,16.0,95.2,1007.1,281.9,0.7,1.0,285.1,0.00,15.3,19.0,"05:34:00",1
"23/06/08","05:50",0.0,16.3,95.5,1006.9,303.4,1.3,1.7,323.7,0.00,15.6,19.0,"05:46:00",1
"23/06/08","06:00",0.0,16.4,95.5,1006.7,311.6,1.3,2.0,313.9,0.00,15.7,18.9,"05:50:16",1
"23/06/08","06:10",0.0,16.5,95.6,1006.9,300.8,1.1,1.3,315.9,0.00,15.8,18.9,"06:00:08",1
"23/06/08","06:20",0.0,16.5,95.6,1006.9,317.0,1.2,2.0,314.6,0.00,15.8,18.8,"06:14:00",1
"23/06/08","06:30",0.0,16.6,95.7,1006.7,308.8,0.3,1.1,320.6,0.02,16.0,19.0,"06:20:48",1
"23/06/08","06:40",0.0,17.3,95.9,1007.1,289.4,0.6,1.2,318.0,0.05,16.7,18.8,"06:38:32",1
"23/06/08","06:50",0.0,17.9,95.7,1006.4,331.9,0.8,1.1,321.5,0.05,17.2,18.7,"06:40:08",1
"23/06/08","07:00",0.0,18.2,95.6,1006.4,320.9,0.6,1.1,337.0,0.04,17.5,18.7,"06:52:16",1
"23/06/08","07:10",0.0,18.7,95.7,1006.4,317.8,1.0,1.4,327.3,0.07,18.0,18.9,"07:04:32",1
"23/06/08","07:20",0.0,19.0,95.6,1006.7,306.6,0.3,1.0,315.7,0.07,18.3,18.7,"07:18:56",1
"23/06/08","07:30",0.0,19.4,95.4,1006.7,304.7,0.7,1.3,326.1,0.07,18.7,18.8,"07:21:36",1
"23/06/08","07:40",0.0,19.8,95.4,1006.7,284.5,0.1,0.5,302.1,0.09,19.1,18.9,"07:39:44",1
"23/06/08","07:50",0.0,20.1,95.5,1006.2,294.6,0.2,1.0,309.7,0.11,19.4,18.8,"07:40:02",1
"23/06/08","08:00",0.0,20.5,95.1,1006.2,261.3,0.3,1.4,345.8,0.11,19.7,18.7,"07:50:48",1
"23/06/08","08:10",0.0,20.8,94.9,1006.2,248.1,0.2,0.6,298.1,0.11,20.0,18.9,"08:06:32",1
"23/06/08","08:20",0.0,21.1,94.8,1006.2,274.5,0.5,1.1,262.4,0.15,20.3,18.8,"08:14:40",1
"23/06/08","08:30",0.0,21.2,93.6,1006.4,306.4,0.6,1.2,299.5,0.17,20.2,18.7,"08:21:44",1
"23/06/08","08:40",0.0,21.3,93.4,1006.7,256.3,0.7,1.8,238.8,0.17,20.2,18.7,"08:34:40",1
"23/06/08","08:50",0.0,21.8,92.5,1006.7,267.7,0.3,1.1,252.9,0.20,20.6,18.8,"08:40:32",1
"23/06/08","09:00",0.0,22.0,90.7,1006.0,302.3,0.6,1.4,331.8,0.17,20.4,18.8,"08:53:20",1
"23/06/08","09:10",0.0,22.1,88.4,1006.0,297.7,0.7,1.4,340.8,0.09,20.1,18.9,"09:06:40",1
"23/06/08","09:20",0.0,22.2,85.6,1006.0,337.3,1.0,2.0,346.3,0.08,19.7,18.8,"09:13:44",1
"23/06/08","09:30",0.0,22.4,83.2,1006.2,337.8,1.1,1.8,346.0,0.10,19.5,19.0,"09:21:12",1
"23/06/08","09:40",0.0,22.7,81.3,1006.0,341.1,0.6,1.3,341.1,0.11,19.4,19.1,"09:35:28",1
"23/06/08","09:50",0.0,22.9,79.4,1005.7,0.8,0.8,1.6,8.8,0.09,19.2,19.1,"09:45:36",1
"23/06/08","10:00",0.0,23.0,78.6,1005.5,356.4,0.7,1.2,339.4,0.10,19.1,19.1,"09:50:16",1
"23/06/08","10:10",0.0,23.1,77.5,1005.7,341.0,1.0,1.7,342.1,0.12,19.0,19.2,"10:02:08",1
"23/06/08","10:20",0.0,23.3,76.2,1005.5,334.5,0.7,1.4,326.2,0.10,18.9,19.1,"10:18:48",1
"23/06/08","10:30",0.0,23.4,75.6,1005.5,301.1,0.8,1.2,330.8,0.08,18.9,19.3,"10:20:40",1
"23/06/08","10:40",0.0,23.2,75.1,1005.7,279.1,0.6,1.0,264.3,0.07,18.6,19.2,"10:37:12",1
"23/06/08","10:50",0.0,23.3,74.9,1005.5,334.0,0.6,1.1,303.3,0.05,18.6,18.9,"10:40:02",1
"23/06/08","11:00",0.0,23.3,75.7,1005.5,332.5,1.0,1.4,350.9,0.06,18.8,19.3,"10:53:36",1
"23/06/08","11:10",0.0,23.3,76.0,1005.2,337.1,0.6,1.6,341.3,0.05,18.9,19.3,"11:00:40",1
"23/06/08","11:20",0.0,23.3,77.1,1004.8,355.0,0.8,1.2,350.5,0.05,19.1,19.3,"11:13:44",1
"23/06/08","11:30",0.0,23.3,78.2,1004.8,342.4,1.2,1.8,339.9,0.06,19.3,19.4,"11:28:56",1
"23/06/08","11:40",0.0,23.2,78.8,1004.3,330.7,1.2,1.9,345.7,0.07,19.4,19.3,"11:30:56",1
"23/06/08","11:50",0.0,23.2,78.6,1004.3,299.6,0.8,1.6,330.9,0.08,19.3,19.5,"11:41:20",1
"23/06/08","12:00",0.0,23.4,77.7,1004.1,277.6,1.0,1.7,261.8,0.10,19.3,19.3,"11:54:48",1
"23/06/08","12:10",0.0,23.9,77.0,1004.1,306.3,0.5,1.2,267.5,0.13,19.7,19.3,"12:00:48",1
"23/06/08","12:20",0.0,24.4,75.2,1004.1,303.6,0.6,1.4,304.3,0.14,19.8,19.5,"12:11:04",1
"23/06/08","12:30",0.0,24.2,73.3,1004.1,225.4,1.0,3.1,241.7,0.12,19.2,19.4,"12:29:52",1
"23/06/08","12:40",0.0,24.3,73.8,1004.1,211.5,0.8,2.5,249.1,0.11,19.4,19.6,"12:33:28",1
"23/06/08","12:50",0.0,24.2,73.2,1004.3,131.6,0.7,1.6,129.5,0.09,19.1,19.5,"12:41:20",1
"23/06/08","13:00",0.0,24.2,72.3,1004.1,95.5,0.8,2.5,85.1,0.09,18.9,19.5,"12:54:08",1
"23/06/08","13:10",0.0,24.5,72.0,1003.8,97.0,0.7,1.7,92.9,0.12,19.2,19.4,"13:06:32",1
"23/06/08","13:20",0.0,24.6,72.0,1003.6,61.9,0.5,1.3,95.9,0.10,19.3,19.4,"13:12:24",1
"23/06/08","13:30",0.0,24.9,72.7,1003.1,70.5,0.5,1.4,107.7,0.13,19.7,19.4,"13:20:32",1
"23/06/08","13:40",0.0,25.2,72.1,1002.9,156.1,0.5,1.6,141.5,0.16,19.9,19.5,"13:35:20",1
"23/06/08","13:50",0.0,25.2,70.2,1002.6,109.1,0.7,1.9,119.1,0.14,19.4,19.6,"13:43:28",1
"23/06/08","14:00",0.0,25.1,70.4,1002.6,111.1,0.6,1.3,25.7,0.10,19.4,19.8,"13:54:08",1
"23/06/08","14:10",0.0,24.9,70.3,1002.9,63.9,0.5,1.6,101.6,0.09,19.2,19.7,"14:06:16",1
"23/06/08","14:20",0.0,25.0,70.3,1002.9,20.2,0.8,2.0,352.6,0.10,19.3,19.7,"14:18:40",1
"23/06/08","14:30",0.0,24.9,70.5,1002.6,355.1,0.5,1.2,344.1,0.05,19.2,19.7,"14:20:08",1
"23/06/08","14:40",0.0,24.8,71.3,1002.6,357.7,0.5,1.2,342.1,0.05,19.3,19.8,"14:37:12",1
"23/06/08","14:50",0.0,24.6,71.9,1002.9,84.8,0.6,2.4,91.1,0.07,19.2,19.9,"14:48:00",1
"23/06/08","15:00",0.0,24.6,71.7,1002.6,84.3,0.8,2.0,85.8,0.09,19.2,19.9,"14:50:48",1
"23/06/08","15:10",0.0,24.8,71.4,1002.4,87.2,1.0,2.6,127.4,0.11,19.3,19.7,"15:07:04",1
"23/06/08","15:20",0.0,24.6,71.2,1002.6,112.2,1.1,2.8,116.2,0.09,19.1,19.7,"15:13:44",1
"23/06/08","15:30",0.0,24.6,70.8,1002.2,90.9,1.1,3.5,125.2,0.08,19.0,19.8,"15:27:20",1
"23/06/08","15:40",0.0,24.3,70.9,1002.6,155.6,0.8,1.8,120.8,0.06,18.7,19.9,"15:32:08",1
"23/06/08","15:50",0.0,24.2,70.9,1002.9,98.5,0.7,1.8,107.4,0.04,18.6,20.0,"15:48:56",1
"23/06/08","16:00",0.0,24.2,71.3,1002.4,82.5,0.8,1.9,105.7,0.04,18.7,19.9,"15:57:04",1
"23/06/08","16:10",0.0,24.1,71.6,1002.9,72.3,0.7,1.9,92.6,0.03,18.7,19.8,"16:01:52",1
"23/06/08","16:20",0.0,24.2,71.8,1002.4,57.6,0.7,1.8,101.9,0.03,18.8,19.8,"16:12:08",1
"23/06/08","16:30",0.0,24.2,72.2,1002.4,72.2,0.8,2.5,93.3,0.03,18.9,19.9,"16:26:08",1
"23/06/08","16:40",0.0,24.1,73.2,1002.2,78.4,0.7,2.6,101.2,0.03,19.0,20.0,"16:38:32",1
"23/06/08","16:50",0.0,23.7,74.4,1001.9,66.9,1.0,2.7,121.0,0.03,18.9,20.1,"16:44:00",1
"23/06/08","17:00",0.0,23.7,75.5,1001.7,72.5,0.6,1.2,81.0,0.04,19.2,19.8,"16:54:48",1
"23/06/08","17:10",0.0,23.6,76.2,1001.7,92.2,0.7,2.0,137.0,0.03,19.2,20.0,"17:06:08",1
"23/06/08","17:20",0.0,23.4,76.5,1001.7,89.9,0.8,2.6,75.8,0.02,19.1,20.0,"17:16:24",1
"23/06/08","17:30",0.0,23.4,77.0,1001.2,81.5,1.1,3.9,122.0,0.01,19.2,19.9,"17:27:12",1
"23/06/08","17:40",0.0,23.0,78.9,1001.7,106.4,1.1,2.5,115.4,0.02,19.2,20.2,"17:39:04",1
"23/06/08","17:50",0.2,22.6,80.8,1001.7,133.1,0.8,2.6,82.7,0.01,19.2,19.9,"17:46:16",1
"23/06/08","18:00",0.0,22.4,82.5,1001.7,134.5,0.8,2.0,129.4,0.00,19.3,20.0,"17:53:12",1
"23/06/08","18:10",0.0,22.2,83.4,1001.7,150.2,1.1,3.3,146.3,0.00,19.3,20.1,"18:02:00",1
"23/06/08","18:20",0.2,21.7,83.8,1001.9,140.4,1.1,4.0,161.4,0.00,18.9,20.0,"18:18:32",1
"23/06/08","18:30",0.0,21.5,83.8,1001.9,139.4,1.5,3.1,87.5,0.00,18.7,20.1,"18:20:08",1
"23/06/08","18:40",0.2,21.3,84.2,1001.7,151.1,1.8,4.8,148.9,0.00,18.6,20.1,"18:32:56",1
"23/06/08","18:50",0.2,21.1,85.0,1002.4,147.0,1.7,3.7,140.9,0.00,18.5,20.0,"18:42:56",1
"23/06/08","19:00",0.2,20.9,85.9,1001.7,139.9,1.0,2.7,148.9,0.00,18.5,19.9,"18:59:20",1
"23/06/08","19:10",0.2,20.6,86.8,1001.9,158.0,1.5,2.7,126.9,0.00,18.4,19.9,"19:02:24",1
"23/06/08","19:20",0.4,20.5,87.7,1001.9,146.2,1.0,2.5,136.6,0.00,18.4,20.1,"19:14:56",1
"23/06/08","19:30",0.6,20.2,88.6,1001.9,166.4,1.5,3.1,148.1,0.00,18.3,19.7,"19:22:16",1
"23/06/08","19:40",0.6,19.8,89.4,1001.9,166.0,1.5,2.7,156.2,0.00,18.0,20.0,"19:39:20",1
"23/06/08","19:50",0.8,19.6,90.3,1001.7,175.4,1.2,2.6,169.5,0.00,18.0,19.9,"19:42:48",1
"23/06/08","20:00",0.6,19.5,90.9,1001.5,172.7,1.0,2.5,153.1,0.00,18.0,19.9,"19:54:00",1
"23/06/08","20:10",0.8,19.5,91.6,1001.9,190.9,1.3,2.4,199.4,0.00,18.1,19.9,"20:06:04",1
"23/06/08","20:20",0.6,19.3,92.1,1001.9,190.6,1.2,2.5,188.7,0.00,18.0,19.8,"20:14:16",1
"23/06/08","20:30",0.6,19.2,92.6,1001.9,197.8,1.1,2.2,206.2,0.00,18.0,19.7,"20:20:08",1
"23/06/08","20:40",0.4,19.1,93.0,1001.9,204.4,1.1,2.0,183.9,0.00,18.0,19.8,"20:31:52",1
"23/06/08","20:50",0.2,19.1,93.3,1001.5,188.3,0.8,1.4,198.0,0.00,18.0,19.9,"20:41:20",1
"23/06/08","21:00",0.4,19.0,93.6,1001.9,192.2,0.6,2.0,144.7,0.00,18.0,19.7,"20:50:56",1
"23/06/08","21:10",0.4,18.9,93.8,1001.7,211.9,0.3,1.7,230.5,0.00,17.9,19.8,"21:04:00",1
"23/06/08","21:20",0.6,18.9,93.9,1001.2,117.5,0.7,2.2,103.8,0.00,17.9,19.9,"21:15:36",1
"23/06/08","21:30",0.4,18.8,94.1,1001.9,109.8,0.8,1.9,128.8,0.00,17.9,19.6,"21:26:24",1
"23/06/08","21:40",0.4,18.7,94.3,1001.7,126.8,0.8,2.0,93.0,0.00,17.8,19.8,"21:36:24",1
"23/06/08","21:50",0.2,18.5,94.5,1001.7,118.4,0.7,2.1,100.9,0.00,17.6,19.7,"21:46:16",1
"23/06/08","22:00",0.0,18.4,94.6,1001.5,168.9,0.7,1.8,189.0,0.00,17.6,19.7,"21:58:56",1
"23/06/08","22:10",0.2,18.3,94.8,1001.7,87.6,0.6,1.7,356.3,0.00,17.5,19.7,"22:02:32",1
"23/06/08","22:20",0.0,18.3,94.9,1001.2,181.7,0.5,1.6,131.4,0.00,17.5,19.8,"22:17:04",1
"23/06/08","22:30",0.0,18.3,94.9,1001.2,233.5,0.6,1.4,162.0,0.00,17.5,19.8,"22:29:04",1
"23/06/08","22:40",0.2,18.3,95.0,1001.0,216.4,0.3,0.8,206.8,0.00,17.5,19.7,"22:30:24",1
"23/06/08","22:50",0.0,18.3,95.1,1001.2,222.7,0.6,1.2,175.9,0.00,17.5,19.7,"22:43:04",1
"23/06/08","23:00",0.6,18.3,95.1,1001.0,247.2,0.5,0.9,242.1,0.00,17.5,19.5,"22:52:40",1
"23/06/08","23:10",0.2,18.2,95.2,1000.8,262.3,0.5,0.9,292.7,0.00,17.5,19.8,"23:08:16",1
"23/06/08","23:20",0.6,18.3,95.3,1000.5,272.9,0.8,1.1,261.2,0.00,17.6,19.6,"23:12:56",1
"23/06/08","23:30",1.0,18.3,95.4,1000.5,284.3,0.6,1.2,265.3,0.00,17.6,19.7,"23:28:56",1
"23/06/08","23:40",0.4,18.3,95.4,1000.3,274.7,0.8,1.6,283.1,0.00,17.6,19.4,"23:30:56",1
"23/06/08","23:50",0.6,18.2,95.5,1000.3,300.9,1.0,1.7,308.2,0.00,17.5,19.4,"23:43:54",1
"23/06/08","24:00",0.4,18.3,95.6,999.8,287.3,1.0,1.7,327.2,0.00,17.6,19.7,"23:50:40",1
